owner,sensor,date,latitude,longitude,air_temperature,qcFlag 
COMPS,ioos:station:USF.COMPS:NFB:1,2011-08-01T12:00:00Z,25.0840,-81.0960,29.31,1111122 
COMPS,ioos:station:USF.COMPS:NFB:1,2011-08-01T12:06:00Z,25.0840,-81.0960,29.34,1111122 
COMPS,ioos:station:USF.COMPS:NFB:1,2011-08-01T12:12:00Z,25.0840,-81.0960,29.38,1111122 
COMPS,ioos:station:USF.COMPS:NFB:1,2011-08-01T12:18:00Z,25.0840,-81.0960,29.47,1111122 
COMPS,ioos:station:USF.COMPS:NFB:1,2011-08-01T12:24:00Z,25.0840,-81.0960,29.44,1111122 
COMPS,ioos:station:USF.COMPS:NFB:1,2011-08-01T12:30:00Z,25.0840,-81.0960,29.48,1111122 
COMPS,ioos:station:USF.COMPS:NFB:1,2011-08-01T12:36:00Z,25.0840,-81.0960,29.49,1111122 
COMPS,ioos:station:USF.COMPS:NFB:1,2011-08-01T12:42:00Z,25.0840,-81.0960,29.55,1111122 
COMPS,ioos:station:USF.COMPS:NFB:1,2011-08-01T12:48:00Z,25.0840,-81.0960,29.58,1111122 
COMPS,ioos:station:USF.COMPS:NFB:1,2011-08-01T12:54:00Z,25.0840,-81.0960,29.64,1111122 
COMPS,ioos:station:USF.COMPS:NFB:1,2011-08-01T13:00:00Z,25.0840,-81.0960,29.6,1111122 
COMPS,ioos:station:USF.COMPS:NFB:1,2011-08-01T13:06:00Z,25.0840,-81.0960,29.64,1111122 
COMPS,ioos:station:USF.COMPS:NFB:1,2011-08-01T13:12:00Z,25.0840,-81.0960,29.64,1111122 
COMPS,ioos:station:USF.COMPS:NFB:1,2011-08-01T13:18:00Z,25.0840,-81.0960,29.65,1111122 
COMPS,ioos:station:USF.COMPS:NFB:1,2011-08-01T13:24:00Z,25.0840,-81.0960,29.67,1111122 
COMPS,ioos:station:USF.COMPS:NFB:1,2011-08-01T13:30:00Z,25.0840,-81.0960,29.69,1111122 
COMPS,ioos:station:USF.COMPS:NFB:1,2011-08-01T13:36:00Z,25.0840,-81.0960,29.77,1111122 
COMPS,ioos:station:USF.COMPS:NFB:1,2011-08-01T13:42:00Z,25.0840,-81.0960,29.83,1111122 
COMPS,ioos:station:USF.COMPS:NFB:1,2011-08-01T13:48:00Z,25.0840,-81.0960,29.89,1111122 
COMPS,ioos:station:USF.COMPS:NFB:1,2011-08-01T13:54:00Z,25.0840,-81.0960,29.88,1111122 
COMPS,ioos:station:USF.COMPS:NFB:1,2011-08-01T14:00:00Z,25.0840,-81.0960,29.81,1111122 
COMPS,ioos:station:USF.COMPS:NFB:1,2011-08-01T14:06:00Z,25.0840,-81.0960,29.82,1111122 
COMPS,ioos:station:USF.COMPS:NFB:1,2011-08-01T14:12:00Z,25.0840,-81.0960,29.92,1111122 
COMPS,ioos:station:USF.COMPS:NFB:1,2011-08-01T14:18:00Z,25.0840,-81.0960,29.97,1111122 
COMPS,ioos:station:USF.COMPS:NFB:1,2011-08-01T14:24:00Z,25.0840,-81.0960,30.03,1111122 
COMPS,ioos:station:USF.COMPS:NFB:1,2011-08-01T14:30:00Z,25.0840,-81.0960,29.97,1111122 
COMPS,ioos:station:USF.COMPS:NFB:1,2011-08-01T14:36:00Z,25.0840,-81.0960,29.94,1111122 
COMPS,ioos:station:USF.COMPS:NFB:1,2011-08-01T14:42:00Z,25.0840,-81.0960,29.99,1111122 
COMPS,ioos:station:USF.COMPS:NFB:1,2011-08-01T14:48:00Z,25.0840,-81.0960,29.99,1111122 
COMPS,ioos:station:USF.COMPS:NFB:1,2011-08-01T14:54:00Z,25.0840,-81.0960,29.99,1111122 
COMPS,ioos:station:USF.COMPS:NFB:1,2011-08-01T15:00:00Z,25.0840,-81.0960,30.02,1111122 
COMPS,ioos:station:USF.COMPS:NFB:1,2011-08-01T15:06:00Z,25.0840,-81.0960,30.05,1111122 
COMPS,ioos:station:USF.COMPS:NFB:1,2011-08-01T15:12:00Z,25.0840,-81.0960,30.08,1111122 
COMPS,ioos:station:USF.COMPS:NFB:1,2011-08-01T15:18:00Z,25.0840,-81.0960,30.13,1111122 
COMPS,ioos:station:USF.COMPS:NFB:1,2011-08-01T15:24:00Z,25.0840,-81.0960,30.1,1111122 
COMPS,ioos:station:USF.COMPS:NFB:1,2011-08-01T15:30:00Z,25.0840,-81.0960,30.04,1111122 
COMPS,ioos:station:USF.COMPS:NFB:1,2011-08-01T15:36:00Z,25.0840,-81.0960,30.15,1111122 
COMPS,ioos:station:USF.COMPS:NFB:1,2011-08-01T15:42:00Z,25.0840,-81.0960,30.18,1111122 
COMPS,ioos:station:USF.COMPS:NFB:1,2011-08-01T15:48:00Z,25.0840,-81.0960,30.16,1111122 
COMPS,ioos:station:USF.COMPS:NFB:1,2011-08-01T15:54:00Z,25.0840,-81.0960,30.16,1111122 
COMPS,ioos:station:USF.COMPS:NFB:1,2011-08-01T16:00:00Z,25.0840,-81.0960,30.2,1111122 
COMPS,ioos:station:USF.COMPS:NFB:1,2011-08-01T16:06:00Z,25.0840,-81.0960,30.16,1111122 
COMPS,ioos:station:USF.COMPS:NFB:1,2011-08-01T16:12:00Z,25.0840,-81.0960,30.13,1111122 
COMPS,ioos:station:USF.COMPS:NFB:1,2011-08-01T16:18:00Z,25.0840,-81.0960,30.17,1111122 
COMPS,ioos:station:USF.COMPS:NFB:1,2011-08-01T16:24:00Z,25.0840,-81.0960,30.11,1111122 
COMPS,ioos:station:USF.COMPS:NFB:1,2011-08-01T16:30:00Z,25.0840,-81.0960,30.12,1111122 
COMPS,ioos:station:USF.COMPS:NFB:1,2011-08-01T16:36:00Z,25.0840,-81.0960,30.13,1111122 
COMPS,ioos:station:USF.COMPS:NFB:1,2011-08-01T16:42:00Z,25.0840,-81.0960,30.05,1111122 
COMPS,ioos:station:USF.COMPS:NFB:1,2011-08-01T16:48:00Z,25.0840,-81.0960,30.01,1111122 
COMPS,ioos:station:USF.COMPS:NFB:1,2011-08-01T16:54:00Z,25.0840,-81.0960,29.96,1111122 
COMPS,ioos:station:USF.COMPS:NFB:1,2011-08-01T17:00:00Z,25.0840,-81.0960,30.0,1111122 
COMPS,ioos:station:USF.COMPS:NFB:1,2011-08-01T18:00:00Z,25.0840,-81.0960,30.19,1111122 
COMPS,ioos:station:USF.COMPS:NFB:1,2011-08-01T18:06:00Z,25.0840,-81.0960,30.14,1111122 
COMPS,ioos:station:USF.COMPS:NFB:1,2011-08-01T18:12:00Z,25.0840,-81.0960,30.13,1111122 
COMPS,ioos:station:USF.COMPS:NFB:1,2011-08-01T18:18:00Z,25.0840,-81.0960,30.1,1111122 
COMPS,ioos:station:USF.COMPS:NFB:1,2011-08-01T18:24:00Z,25.0840,-81.0960,30.16,1111122 
COMPS,ioos:station:USF.COMPS:NFB:1,2011-08-01T18:30:00Z,25.0840,-81.0960,30.14,1111122 
COMPS,ioos:station:USF.COMPS:NFB:1,2011-08-01T18:36:00Z,25.0840,-81.0960,30.26,1111122 
COMPS,ioos:station:USF.COMPS:NFB:1,2011-08-01T18:42:00Z,25.0840,-81.0960,30.29,1111122 
COMPS,ioos:station:USF.COMPS:NFB:1,2011-08-01T18:48:00Z,25.0840,-81.0960,30.35,1111122 
COMPS,ioos:station:USF.COMPS:NFB:1,2011-08-01T18:54:00Z,25.0840,-81.0960,30.25,1111122 
COMPS,ioos:station:USF.COMPS:NFB:1,2011-08-01T19:00:00Z,25.0840,-81.0960,30.3,1111122 
COMPS,ioos:station:USF.COMPS:NFB:1,2011-08-01T19:06:00Z,25.0840,-81.0960,30.29,1111122 
COMPS,ioos:station:USF.COMPS:NFB:1,2011-08-01T19:12:00Z,25.0840,-81.0960,30.34,1111122 
COMPS,ioos:station:USF.COMPS:NFB:1,2011-08-01T19:18:00Z,25.0840,-81.0960,30.36,1111122 
COMPS,ioos:station:USF.COMPS:NFB:1,2011-08-01T19:24:00Z,25.0840,-81.0960,30.37,1111122 
COMPS,ioos:station:USF.COMPS:NFB:1,2011-08-01T19:30:00Z,25.0840,-81.0960,30.38,1111122 
COMPS,ioos:station:USF.COMPS:NFB:1,2011-08-01T19:36:00Z,25.0840,-81.0960,30.41,1111122 
COMPS,ioos:station:USF.COMPS:NFB:1,2011-08-01T19:42:00Z,25.0840,-81.0960,30.43,1111122 
COMPS,ioos:station:USF.COMPS:NFB:1,2011-08-01T19:48:00Z,25.0840,-81.0960,30.43,1111122 
COMPS,ioos:station:USF.COMPS:NFB:1,2011-08-01T19:54:00Z,25.0840,-81.0960,30.45,1111122 
COMPS,ioos:station:USF.COMPS:NFB:1,2011-08-01T20:00:00Z,25.0840,-81.0960,30.5,1111122 
COMPS,ioos:station:USF.COMPS:NFB:1,2011-08-01T20:06:00Z,25.0840,-81.0960,30.49,1111122 
COMPS,ioos:station:USF.COMPS:NFB:1,2011-08-01T20:12:00Z,25.0840,-81.0960,30.5,1111122 
COMPS,ioos:station:USF.COMPS:NFB:1,2011-08-01T20:18:00Z,25.0840,-81.0960,30.61,1111122 
COMPS,ioos:station:USF.COMPS:NFB:1,2011-08-01T20:24:00Z,25.0840,-81.0960,30.53,1111122 
COMPS,ioos:station:USF.COMPS:NFB:1,2011-08-01T20:30:00Z,25.0840,-81.0960,30.54,1111122 
COMPS,ioos:station:USF.COMPS:NFB:1,2011-08-01T20:36:00Z,25.0840,-81.0960,30.59,1111122 
COMPS,ioos:station:USF.COMPS:NFB:1,2011-08-01T20:42:00Z,25.0840,-81.0960,30.7,1111122 
COMPS,ioos:station:USF.COMPS:NFB:1,2011-08-01T20:48:00Z,25.0840,-81.0960,30.7,1111122 
COMPS,ioos:station:USF.COMPS:NFB:1,2011-08-01T20:54:00Z,25.0840,-81.0960,30.69,1111122 
COMPS,ioos:station:USF.COMPS:NFB:1,2011-08-01T21:00:00Z,25.0840,-81.0960,30.7,1111122 
COMPS,ioos:station:USF.COMPS:NFB:1,2011-08-01T21:06:00Z,25.0840,-81.0960,30.7,1111122 
COMPS,ioos:station:USF.COMPS:NFB:1,2011-08-01T21:12:00Z,25.0840,-81.0960,30.68,1111122 
COMPS,ioos:station:USF.COMPS:NFB:1,2011-08-01T21:18:00Z,25.0840,-81.0960,30.71,1111122 
COMPS,ioos:station:USF.COMPS:NFB:1,2011-08-01T21:24:00Z,25.0840,-81.0960,30.77,1111122 
COMPS,ioos:station:USF.COMPS:NFB:1,2011-08-01T21:30:00Z,25.0840,-81.0960,30.75,1111122 
COMPS,ioos:station:USF.COMPS:NFB:1,2011-08-01T21:36:00Z,25.0840,-81.0960,30.76,1111122 
COMPS,ioos:station:USF.COMPS:NFB:1,2011-08-01T21:42:00Z,25.0840,-81.0960,30.74,1111122 
COMPS,ioos:station:USF.COMPS:NFB:1,2011-08-01T21:48:00Z,25.0840,-81.0960,30.85,1111122 
COMPS,ioos:station:USF.COMPS:NFB:1,2011-08-01T21:54:00Z,25.0840,-81.0960,30.68,1111122 
COMPS,ioos:station:USF.COMPS:NFB:1,2011-08-01T22:00:00Z,25.0840,-81.0960,30.7,1111122 
COMPS,ioos:station:USF.COMPS:NFB:1,2011-08-01T22:06:00Z,25.0840,-81.0960,30.59,1111122 
COMPS,ioos:station:USF.COMPS:NFB:1,2011-08-01T22:12:00Z,25.0840,-81.0960,30.6,1111122 
COMPS,ioos:station:USF.COMPS:NFB:1,2011-08-01T22:18:00Z,25.0840,-81.0960,30.65,1111122 
COMPS,ioos:station:USF.COMPS:NFB:1,2011-08-01T22:24:00Z,25.0840,-81.0960,30.57,1111122 
COMPS,ioos:station:USF.COMPS:NFB:1,2011-08-01T22:30:00Z,25.0840,-81.0960,30.0,1111122 
COMPS,ioos:station:USF.COMPS:NFB:1,2011-08-01T22:36:00Z,25.0840,-81.0960,29.3,1111122 
COMPS,ioos:station:USF.COMPS:NFB:1,2011-08-01T22:42:00Z,25.0840,-81.0960,29.46,1111122 
COMPS,ioos:station:USF.COMPS:NFB:1,2011-08-01T22:48:00Z,25.0840,-81.0960,29.46,1111122 
COMPS,ioos:station:USF.COMPS:NFB:1,2011-08-01T22:54:00Z,25.0840,-81.0960,28.88,1111122 
COMPS,ioos:station:USF.COMPS:NFB:1,2011-08-01T23:00:00Z,25.0840,-81.0960,28.9,1111122 
COMPS,ioos:station:USF.COMPS:NFB:1,2011-08-01T23:06:00Z,25.0840,-81.0960,29.05,1111122 
COMPS,ioos:station:USF.COMPS:NFB:1,2011-08-01T23:12:00Z,25.0840,-81.0960,29.04,1111122 
COMPS,ioos:station:USF.COMPS:NFB:1,2011-08-01T23:18:00Z,25.0840,-81.0960,29.14,1111122 
COMPS,ioos:station:USF.COMPS:NFB:1,2011-08-01T23:24:00Z,25.0840,-81.0960,29.3,1111122 
COMPS,ioos:station:USF.COMPS:NFB:1,2011-08-01T23:30:00Z,25.0840,-81.0960,29.3,1111122 
COMPS,ioos:station:USF.COMPS:NFB:1,2011-08-01T23:36:00Z,25.0840,-81.0960,29.4,1111122 
COMPS,ioos:station:USF.COMPS:NFB:1,2011-08-01T23:42:00Z,25.0840,-81.0960,29.5,1111122 
COMPS,ioos:station:USF.COMPS:NFB:1,2011-08-01T23:48:00Z,25.0840,-81.0960,29.44,1111122 
COMPS,ioos:station:USF.COMPS:NFB:1,2011-08-01T23:54:00Z,25.0840,-81.0960,29.34,1111122 
COMPS,ioos:station:USF.COMPS:NFB:1,2011-08-02T00:00:00Z,25.0840,-81.0960,29.3,1111122 
COMPS,ioos:station:USF.COMPS:NFB:1,2011-08-02T00:06:00Z,25.0840,-81.0960,29.46,1111122 
COMPS,ioos:station:USF.COMPS:NFB:1,2011-08-02T00:12:00Z,25.0840,-81.0960,29.42,1111122 
COMPS,ioos:station:USF.COMPS:NFB:1,2011-08-02T00:18:00Z,25.0840,-81.0960,29.45,1111122 
COMPS,ioos:station:USF.COMPS:NFB:1,2011-08-02T00:24:00Z,25.0840,-81.0960,29.52,1111122 
COMPS,ioos:station:USF.COMPS:NFB:1,2011-08-02T00:30:00Z,25.0840,-81.0960,29.46,1111122 
COMPS,ioos:station:USF.COMPS:NFB:1,2011-08-02T00:36:00Z,25.0840,-81.0960,29.49,1111122 
COMPS,ioos:station:USF.COMPS:NFB:1,2011-08-02T00:42:00Z,25.0840,-81.0960,29.41,1111122 
COMPS,ioos:station:USF.COMPS:NFB:1,2011-08-02T00:48:00Z,25.0840,-81.0960,29.39,1111122 
COMPS,ioos:station:USF.COMPS:NFB:1,2011-08-02T00:54:00Z,25.0840,-81.0960,29.47,1111122 
COMPS,ioos:station:USF.COMPS:NFB:1,2011-08-02T01:00:00Z,25.0840,-81.0960,29.5,1111122 
COMPS,ioos:station:USF.COMPS:NFB:1,2011-08-02T01:06:00Z,25.0840,-81.0960,29.49,1111122 
COMPS,ioos:station:USF.COMPS:NFB:1,2011-08-02T01:12:00Z,25.0840,-81.0960,29.62,1111122 
COMPS,ioos:station:USF.COMPS:NFB:1,2011-08-02T01:18:00Z,25.0840,-81.0960,29.65,1111122 
COMPS,ioos:station:USF.COMPS:NFB:1,2011-08-02T01:24:00Z,25.0840,-81.0960,29.64,1111122 
COMPS,ioos:station:USF.COMPS:NFB:1,2011-08-02T01:30:00Z,25.0840,-81.0960,29.63,1111122 
COMPS,ioos:station:USF.COMPS:NFB:1,2011-08-02T01:36:00Z,25.0840,-81.0960,29.77,1111122 
COMPS,ioos:station:USF.COMPS:NFB:1,2011-08-02T01:42:00Z,25.0840,-81.0960,29.79,1111122 
COMPS,ioos:station:USF.COMPS:NFB:1,2011-08-02T01:48:00Z,25.0840,-81.0960,29.8,1111122 
COMPS,ioos:station:USF.COMPS:NFB:1,2011-08-02T01:54:00Z,25.0840,-81.0960,29.79,1111122 
COMPS,ioos:station:USF.COMPS:NFB:1,2011-08-02T02:00:00Z,25.0840,-81.0960,29.8,1111122 
COMPS,ioos:station:USF.COMPS:NFB:1,2011-08-02T02:06:00Z,25.0840,-81.0960,29.87,1111122 
COMPS,ioos:station:USF.COMPS:NFB:1,2011-08-02T02:12:00Z,25.0840,-81.0960,29.86,1111122 
COMPS,ioos:station:USF.COMPS:NFB:1,2011-08-02T02:18:00Z,25.0840,-81.0960,29.87,1111122 
COMPS,ioos:station:USF.COMPS:NFB:1,2011-08-02T02:24:00Z,25.0840,-81.0960,29.83,1111122 
COMPS,ioos:station:USF.COMPS:NFB:1,2011-08-02T02:30:00Z,25.0840,-81.0960,29.79,1111122 
COMPS,ioos:station:USF.COMPS:NFB:1,2011-08-02T02:36:00Z,25.0840,-81.0960,29.87,1111122 
COMPS,ioos:station:USF.COMPS:NFB:1,2011-08-02T02:42:00Z,25.0840,-81.0960,29.92,1111122 
COMPS,ioos:station:USF.COMPS:NFB:1,2011-08-02T02:48:00Z,25.0840,-81.0960,29.85,1111122 
COMPS,ioos:station:USF.COMPS:NFB:1,2011-08-02T02:54:00Z,25.0840,-81.0960,29.92,1111122 
COMPS,ioos:station:USF.COMPS:NFB:1,2011-08-02T03:00:00Z,25.0840,-81.0960,29.9,1111122 
COMPS,ioos:station:USF.COMPS:NFB:1,2011-08-02T12:00:00Z,25.0840,-81.0960,30.18,1111122 
COMPS,ioos:station:USF.COMPS:NFB:1,2011-08-02T12:06:00Z,25.0840,-81.0960,30.18,1111122 
COMPS,ioos:station:USF.COMPS:NFB:1,2011-08-02T12:12:00Z,25.0840,-81.0960,30.21,1111122 
COMPS,ioos:station:USF.COMPS:NFB:1,2011-08-02T12:18:00Z,25.0840,-81.0960,30.23,1111122 
COMPS,ioos:station:USF.COMPS:NFB:1,2011-08-02T12:24:00Z,25.0840,-81.0960,30.16,1111122 
COMPS,ioos:station:USF.COMPS:NFB:1,2011-08-02T12:30:00Z,25.0840,-81.0960,30.05,1111122 
COMPS,ioos:station:USF.COMPS:NFB:1,2011-08-02T12:36:00Z,25.0840,-81.0960,30.03,1111122 
COMPS,ioos:station:USF.COMPS:NFB:1,2011-08-02T12:42:00Z,25.0840,-81.0960,29.96,1111122 
COMPS,ioos:station:USF.COMPS:NFB:1,2011-08-02T12:48:00Z,25.0840,-81.0960,30.03,1111122 
COMPS,ioos:station:USF.COMPS:NFB:1,2011-08-02T12:54:00Z,25.0840,-81.0960,30.03,1111122 
COMPS,ioos:station:USF.COMPS:NFB:1,2011-08-02T13:00:00Z,25.0840,-81.0960,30.0,1111122 
COMPS,ioos:station:USF.COMPS:NFB:1,2011-08-02T13:06:00Z,25.0840,-81.0960,30.08,1111122 
COMPS,ioos:station:USF.COMPS:NFB:1,2011-08-02T13:12:00Z,25.0840,-81.0960,29.92,1111122 
COMPS,ioos:station:USF.COMPS:NFB:1,2011-08-02T13:18:00Z,25.0840,-81.0960,30.15,1111122 
COMPS,ioos:station:USF.COMPS:NFB:1,2011-08-02T13:24:00Z,25.0840,-81.0960,30.08,1111122 
COMPS,ioos:station:USF.COMPS:NFB:1,2011-08-02T13:30:00Z,25.0840,-81.0960,30.14,1111122 
COMPS,ioos:station:USF.COMPS:NFB:1,2011-08-02T13:36:00Z,25.0840,-81.0960,30.33,1111122 
COMPS,ioos:station:USF.COMPS:NFB:1,2011-08-02T13:42:00Z,25.0840,-81.0960,30.5,1111122 
COMPS,ioos:station:USF.COMPS:NFB:1,2011-08-02T13:48:00Z,25.0840,-81.0960,30.44,1111122 
COMPS,ioos:station:USF.COMPS:NFB:1,2011-08-02T13:54:00Z,25.0840,-81.0960,30.52,1111122 
COMPS,ioos:station:USF.COMPS:NFB:1,2011-08-02T14:00:00Z,25.0840,-81.0960,30.39,1111122 
COMPS,ioos:station:USF.COMPS:NFB:1,2011-08-02T14:06:00Z,25.0840,-81.0960,30.34,1111122 
COMPS,ioos:station:USF.COMPS:NFB:1,2011-08-02T14:12:00Z,25.0840,-81.0960,30.42,1111122 
COMPS,ioos:station:USF.COMPS:NFB:1,2011-08-02T14:18:00Z,25.0840,-81.0960,30.47,1111122 
COMPS,ioos:station:USF.COMPS:NFB:1,2011-08-02T14:24:00Z,25.0840,-81.0960,30.41,1111122 
COMPS,ioos:station:USF.COMPS:NFB:1,2011-08-02T14:30:00Z,25.0840,-81.0960,30.36,1111122 
COMPS,ioos:station:USF.COMPS:NFB:1,2011-08-02T14:36:00Z,25.0840,-81.0960,30.36,1111122 
COMPS,ioos:station:USF.COMPS:NFB:1,2011-08-02T14:42:00Z,25.0840,-81.0960,30.28,1111122 
COMPS,ioos:station:USF.COMPS:NFB:1,2011-08-02T14:48:00Z,25.0840,-81.0960,30.36,1111122 
COMPS,ioos:station:USF.COMPS:NFB:1,2011-08-02T14:54:00Z,25.0840,-81.0960,30.41,1111122 
COMPS,ioos:station:USF.COMPS:NFB:1,2011-08-02T15:00:00Z,25.0840,-81.0960,30.4,1111122 
COMPS,ioos:station:USF.COMPS:NFB:1,2011-08-02T15:06:00Z,25.0840,-81.0960,30.48,1111122 
COMPS,ioos:station:USF.COMPS:NFB:1,2011-08-02T15:12:00Z,25.0840,-81.0960,30.44,1111122 
COMPS,ioos:station:USF.COMPS:NFB:1,2011-08-02T15:18:00Z,25.0840,-81.0960,30.45,1111122 
COMPS,ioos:station:USF.COMPS:NFB:1,2011-08-02T15:24:00Z,25.0840,-81.0960,30.43,1111122 
COMPS,ioos:station:USF.COMPS:NFB:1,2011-08-02T15:30:00Z,25.0840,-81.0960,30.39,1111122 
COMPS,ioos:station:USF.COMPS:NFB:1,2011-08-02T15:36:00Z,25.0840,-81.0960,30.46,1111122 
COMPS,ioos:station:USF.COMPS:NFB:1,2011-08-02T15:42:00Z,25.0840,-81.0960,30.45,1111122 
COMPS,ioos:station:USF.COMPS:NFB:1,2011-08-02T15:48:00Z,25.0840,-81.0960,30.38,1111122 
COMPS,ioos:station:USF.COMPS:NFB:1,2011-08-02T15:54:00Z,25.0840,-81.0960,30.32,1111122 
COMPS,ioos:station:USF.COMPS:NFB:1,2011-08-02T16:00:00Z,25.0840,-81.0960,30.3,1111122 
COMPS,ioos:station:USF.COMPS:NFB:1,2011-08-02T16:06:00Z,25.0840,-81.0960,30.47,1111122 
COMPS,ioos:station:USF.COMPS:NFB:1,2011-08-02T16:12:00Z,25.0840,-81.0960,30.42,1111122 
COMPS,ioos:station:USF.COMPS:NFB:1,2011-08-02T16:18:00Z,25.0840,-81.0960,30.39,1111122 
COMPS,ioos:station:USF.COMPS:NFB:1,2011-08-02T16:24:00Z,25.0840,-81.0960,30.43,1111122 
COMPS,ioos:station:USF.COMPS:NFB:1,2011-08-02T16:30:00Z,25.0840,-81.0960,30.38,1111122 
COMPS,ioos:station:USF.COMPS:NFB:1,2011-08-02T16:36:00Z,25.0840,-81.0960,30.36,1111122 
COMPS,ioos:station:USF.COMPS:NFB:1,2011-08-02T16:42:00Z,25.0840,-81.0960,30.43,1111122 
COMPS,ioos:station:USF.COMPS:NFB:1,2011-08-02T16:48:00Z,25.0840,-81.0960,30.44,1111122 
COMPS,ioos:station:USF.COMPS:NFB:1,2011-08-02T16:54:00Z,25.0840,-81.0960,30.45,1111122 
COMPS,ioos:station:USF.COMPS:NFB:1,2011-08-02T17:00:00Z,25.0840,-81.0960,30.5,1111122 
COMPS,ioos:station:USF.COMPS:NFB:1,2011-08-02T17:06:00Z,25.0840,-81.0960,30.44,1111122 
COMPS,ioos:station:USF.COMPS:NFB:1,2011-08-02T17:12:00Z,25.0840,-81.0960,30.43,1111122 
COMPS,ioos:station:USF.COMPS:NFB:1,2011-08-02T17:18:00Z,25.0840,-81.0960,30.43,1111122 
COMPS,ioos:station:USF.COMPS:NFB:1,2011-08-02T17:24:00Z,25.0840,-81.0960,30.44,1111122 
COMPS,ioos:station:USF.COMPS:NFB:1,2011-08-02T17:30:00Z,25.0840,-81.0960,30.46,1111122 
COMPS,ioos:station:USF.COMPS:NFB:1,2011-08-02T17:36:00Z,25.0840,-81.0960,30.52,1111122 
COMPS,ioos:station:USF.COMPS:NFB:1,2011-08-02T17:42:00Z,25.0840,-81.0960,30.54,1111122 
COMPS,ioos:station:USF.COMPS:NFB:1,2011-08-02T17:48:00Z,25.0840,-81.0960,30.5,1111122 
COMPS,ioos:station:USF.COMPS:NFB:1,2011-08-02T17:54:00Z,25.0840,-81.0960,30.48,1111122 
COMPS,ioos:station:USF.COMPS:NFB:1,2011-08-02T18:00:00Z,25.0840,-81.0960,30.5,1111122 
COMPS,ioos:station:USF.COMPS:NFB:1,2011-08-02T18:06:00Z,25.0840,-81.0960,30.55,1111122 
COMPS,ioos:station:USF.COMPS:NFB:1,2011-08-02T18:12:00Z,25.0840,-81.0960,30.57,1111122 
COMPS,ioos:station:USF.COMPS:NFB:1,2011-08-02T18:18:00Z,25.0840,-81.0960,30.61,1111122 
COMPS,ioos:station:USF.COMPS:NFB:1,2011-08-02T18:24:00Z,25.0840,-81.0960,30.69,1111122 
COMPS,ioos:station:USF.COMPS:NFB:1,2011-08-02T18:30:00Z,25.0840,-81.0960,30.71,1111122 
COMPS,ioos:station:USF.COMPS:NFB:1,2011-08-02T18:36:00Z,25.0840,-81.0960,30.72,1111122 
COMPS,ioos:station:USF.COMPS:NFB:1,2011-08-02T18:42:00Z,25.0840,-81.0960,30.62,1111122 
COMPS,ioos:station:USF.COMPS:NFB:1,2011-08-02T18:48:00Z,25.0840,-81.0960,30.67,1111122 
COMPS,ioos:station:USF.COMPS:NFB:1,2011-08-02T18:54:00Z,25.0840,-81.0960,30.62,1111122 
COMPS,ioos:station:USF.COMPS:NFB:1,2011-08-02T19:00:00Z,25.0840,-81.0960,30.6,1111122 
COMPS,ioos:station:USF.COMPS:NFB:1,2011-08-02T19:06:00Z,25.0840,-81.0960,30.61,1111122 
COMPS,ioos:station:USF.COMPS:NFB:1,2011-08-02T19:12:00Z,25.0840,-81.0960,30.64,1111122 
COMPS,ioos:station:USF.COMPS:NFB:1,2011-08-02T19:18:00Z,25.0840,-81.0960,30.69,1111122 
COMPS,ioos:station:USF.COMPS:NFB:1,2011-08-02T19:24:00Z,25.0840,-81.0960,30.79,1111122 
COMPS,ioos:station:USF.COMPS:NFB:1,2011-08-02T19:30:00Z,25.0840,-81.0960,30.81,1111122 
COMPS,ioos:station:USF.COMPS:NFB:1,2011-08-02T19:36:00Z,25.0840,-81.0960,30.74,1111122 
COMPS,ioos:station:USF.COMPS:NFB:1,2011-08-02T19:42:00Z,25.0840,-81.0960,30.76,1111122 
COMPS,ioos:station:USF.COMPS:NFB:1,2011-08-02T19:48:00Z,25.0840,-81.0960,30.72,1111122 
COMPS,ioos:station:USF.COMPS:NFB:1,2011-08-02T19:54:00Z,25.0840,-81.0960,30.71,1111122 
COMPS,ioos:station:USF.COMPS:NFB:1,2011-08-02T20:00:00Z,25.0840,-81.0960,30.7,1111122 
COMPS,ioos:station:USF.COMPS:NFB:1,2011-08-02T20:06:00Z,25.0840,-81.0960,30.72,1111122 
COMPS,ioos:station:USF.COMPS:NFB:1,2011-08-02T20:12:00Z,25.0840,-81.0960,30.7,1111122 
COMPS,ioos:station:USF.COMPS:NFB:1,2011-08-02T20:18:00Z,25.0840,-81.0960,30.79,1111122 
COMPS,ioos:station:USF.COMPS:NFB:1,2011-08-02T20:24:00Z,25.0840,-81.0960,30.7,1111122 
COMPS,ioos:station:USF.COMPS:NFB:1,2011-08-02T20:30:00Z,25.0840,-81.0960,30.66,1111122 
COMPS,ioos:station:USF.COMPS:NFB:1,2011-08-02T20:36:00Z,25.0840,-81.0960,30.68,1111122 
COMPS,ioos:station:USF.COMPS:NFB:1,2011-08-02T20:42:00Z,25.0840,-81.0960,30.68,1111122 
COMPS,ioos:station:USF.COMPS:NFB:1,2011-08-02T20:48:00Z,25.0840,-81.0960,30.63,1111122 
COMPS,ioos:station:USF.COMPS:NFB:1,2011-08-02T20:54:00Z,25.0840,-81.0960,30.57,1111122 
COMPS,ioos:station:USF.COMPS:NFB:1,2011-08-02T21:00:00Z,25.0840,-81.0960,30.6,1111122 
COMPS,ioos:station:USF.COMPS:NFB:1,2011-08-02T21:06:00Z,25.0840,-81.0960,30.63,1111122 
COMPS,ioos:station:USF.COMPS:NFB:1,2011-08-02T21:12:00Z,25.0840,-81.0960,30.53,1111122 
COMPS,ioos:station:USF.COMPS:NFB:1,2011-08-02T21:18:00Z,25.0840,-81.0960,30.45,1111122 
COMPS,ioos:station:USF.COMPS:NFB:1,2011-08-02T21:24:00Z,25.0840,-81.0960,30.46,1111122 
COMPS,ioos:station:USF.COMPS:NFB:1,2011-08-02T21:30:00Z,25.0840,-81.0960,30.49,1111122 
COMPS,ioos:station:USF.COMPS:NFB:1,2011-08-02T21:36:00Z,25.0840,-81.0960,30.55,1111122 
COMPS,ioos:station:USF.COMPS:NFB:1,2011-08-02T21:42:00Z,25.0840,-81.0960,30.59,1111122 
COMPS,ioos:station:USF.COMPS:NFB:1,2011-08-02T21:48:00Z,25.0840,-81.0960,30.58,1111122 
COMPS,ioos:station:USF.COMPS:NFB:1,2011-08-02T21:54:00Z,25.0840,-81.0960,30.61,1111122 
COMPS,ioos:station:USF.COMPS:NFB:1,2011-08-02T22:00:00Z,25.0840,-81.0960,30.6,1111122 
COMPS,ioos:station:USF.COMPS:NFB:1,2011-08-02T22:06:00Z,25.0840,-81.0960,30.6,1111122 
COMPS,ioos:station:USF.COMPS:NFB:1,2011-08-02T22:12:00Z,25.0840,-81.0960,30.49,1111122 
COMPS,ioos:station:USF.COMPS:NFB:1,2011-08-02T22:18:00Z,25.0840,-81.0960,30.5,1111122 
COMPS,ioos:station:USF.COMPS:NFB:1,2011-08-02T22:24:00Z,25.0840,-81.0960,30.46,1111122 
COMPS,ioos:station:USF.COMPS:NFB:1,2011-08-02T22:30:00Z,25.0840,-81.0960,30.42,1111122 
COMPS,ioos:station:USF.COMPS:NFB:1,2011-08-02T22:36:00Z,25.0840,-81.0960,30.47,1111122 
COMPS,ioos:station:USF.COMPS:NFB:1,2011-08-02T22:42:00Z,25.0840,-81.0960,30.47,1111122 
COMPS,ioos:station:USF.COMPS:NFB:1,2011-08-02T22:48:00Z,25.0840,-81.0960,30.53,1111122 
COMPS,ioos:station:USF.COMPS:NFB:1,2011-08-02T22:54:00Z,25.0840,-81.0960,30.48,1111122 
COMPS,ioos:station:USF.COMPS:NFB:1,2011-08-02T23:00:00Z,25.0840,-81.0960,30.5,1111122 
COMPS,ioos:station:USF.COMPS:NFB:1,2011-08-02T23:06:00Z,25.0840,-81.0960,30.5,1111122 
COMPS,ioos:station:USF.COMPS:NFB:1,2011-08-02T23:12:00Z,25.0840,-81.0960,30.51,1111122 
COMPS,ioos:station:USF.COMPS:NFB:1,2011-08-02T23:18:00Z,25.0840,-81.0960,30.54,1111122 
COMPS,ioos:station:USF.COMPS:NFB:1,2011-08-02T23:24:00Z,25.0840,-81.0960,30.65,1111122 
COMPS,ioos:station:USF.COMPS:NFB:1,2011-08-02T23:30:00Z,25.0840,-81.0960,30.62,1111122 
COMPS,ioos:station:USF.COMPS:NFB:1,2011-08-02T23:36:00Z,25.0840,-81.0960,30.73,1111122 
COMPS,ioos:station:USF.COMPS:NFB:1,2011-08-02T23:42:00Z,25.0840,-81.0960,30.76,1111122 
COMPS,ioos:station:USF.COMPS:NFB:1,2011-08-02T23:48:00Z,25.0840,-81.0960,30.74,1111122 
COMPS,ioos:station:USF.COMPS:NFB:1,2011-08-02T23:54:00Z,25.0840,-81.0960,30.73,1111122 
COMPS,ioos:station:USF.COMPS:NFB:1,2011-08-03T00:00:00Z,25.0840,-81.0960,30.7,1111122 
COMPS,ioos:station:USF.COMPS:NFB:1,2011-08-03T00:06:00Z,25.0840,-81.0960,30.66,1111122 
COMPS,ioos:station:USF.COMPS:NFB:1,2011-08-03T00:12:00Z,25.0840,-81.0960,30.68,1111122 
COMPS,ioos:station:USF.COMPS:NFB:1,2011-08-03T00:18:00Z,25.0840,-81.0960,30.62,1111122 
COMPS,ioos:station:USF.COMPS:NFB:1,2011-08-03T00:24:00Z,25.0840,-81.0960,30.6,1111122 
COMPS,ioos:station:USF.COMPS:NFB:1,2011-08-03T00:30:00Z,25.0840,-81.0960,30.57,1111122 
COMPS,ioos:station:USF.COMPS:NFB:1,2011-08-03T00:36:00Z,25.0840,-81.0960,30.59,1111122 
COMPS,ioos:station:USF.COMPS:NFB:1,2011-08-03T00:42:00Z,25.0840,-81.0960,30.57,1111122 
COMPS,ioos:station:USF.COMPS:NFB:1,2011-08-03T00:48:00Z,25.0840,-81.0960,30.58,1111122 
COMPS,ioos:station:USF.COMPS:NFB:1,2011-08-03T00:54:00Z,25.0840,-81.0960,30.54,1111122 